Location: Aufkirchen
(47.9603°N, 11.3653°E)
Time: 17:24:26
(UTC+01:00)

Transit 2A - Pass Details

Date: 03 December 2020
Orbit: 599 x 960 km, 66.7° (Epoch: 26 January)

Event Time Altitude Azimuth Distance (km) Brightness Sun altitude
Rises 19:18:53 0° 275° (W) 3,578 10.7 -28.6°
Reaches altitude 10° 19:22:28 10° 295° (WNW) 2,587 9.5 -29.2°
Maximum altitude 19:26:17 17° 334° (NNW) 2,063 8.4 -29.8°
Enters shadow 19:28:08 15° 357° (N) 2,154 8.3 -30.1°
Drops below altitude 10° 19:29:56 10° 14° (NNE) 2,449 - -30.4°
Sets 19:33:13 0° 35° (NE) 3,307 - -31.0°
